Lone Rock, WI

5:21 AM CDT on April 27, 2017 (GMT -0500)
Tri-County Regional

Weather History for KLNR - April, 2013

Change the Weather History Date:

Monday, April 8, 2013

  Actual Average Record
Temperature  
Mean Temperature 54 °F -  
Max Temperature 66 °F 52 °F 73 °F (2017)
Min Temperature 41 °F 32 °F 17 °F (1997)
Degree Days  
Heating Degree Days 12    
Growing Degree Days 4 (Base 50)    
Moisture  
Dew Point 41 °F    
Average Humidity 72    
Maximum Humidity 89    
Minimum Humidity 47    
Precipitation  
Precipitation 0.09 in - - ()
Sea Level Pressure  
Sea Level Pressure 29.79 in    
Wind  
Wind Speed 10 mph (NE)    
Max Wind Speed 15 mph    
Max Gust Speed 20 mph    
Visibility 7 miles    
Events Rain    
Averages and records for this station are not official NWS values.
T = Trace of Precipitation, MM = Missing Value Source: NWS Daily Summary

Daily Weather History Graph

Daily Weather History Graph

Search for Another Location

Airport or City:

Trip Planner

Search our weather history database for the weather conditions in past years. The results will help you decide how hot, cold, wet, or windy it might be!

Date:

Astronomy

Apr. 08, 2013 Rise Set
Actual Time 6:29 AM CDT 7:35 PM CDT
Civil Twilight 6:00 AM CDT 8:04 PM CDT
Nautical Twilight 5:26 AM CDT 8:39 PM CDT
Astronomical Twilight 4:49 AM CDT 9:16 PM CDT
Moon 5:22 AM CDT (4/8) 6:08 PM CDT (4/8)
Length of Visible Light 14h 04m
Length of Day
13h 05m
Waning Crescent, 3% of the Moon is Illuminated
Apr 8
Waning Crescent
Apr 10
New
Apr 18
First Quarter
Apr 25
Full
May 2
Last Quarter

Hourly Weather History & Observations

Time (CDT) Temp. Windchill Dew Point Humidity Pressure Visibility Wind Dir Wind Speed Gust Speed Precip Events Conditions
12:56 AM 43.0 °F 35.7 °F 36.0 °F 76% 29.83 in 8.0 mi East 15.0 mph - N/A   Clear
1:56 AM 41.0 °F 33.5 °F 35.1 °F 79% 29.81 in 8.0 mi East 13.8 mph - N/A   Clear
2:56 AM 41.0 °F 33.5 °F 34.0 °F 76% 29.77 in 8.0 mi East 13.8 mph - N/A   Clear
3:56 AM 41.0 °F 33.5 °F 34.0 °F 76% 29.75 in 8.0 mi East 13.8 mph - N/A   Clear
4:56 AM 42.1 °F 36.1 °F 34.0 °F 73% 29.72 in 8.0 mi ESE 10.4 mph 19.6 mph N/A   Mostly Cloudy
5:20 AM 42.8 °F 37.5 °F 33.8 °F 70% 29.72 in 8.0 mi East 9.2 mph - N/A   Overcast
5:56 AM 44.1 °F 39.0 °F 35.1 °F 71% 29.71 in 8.0 mi East 9.2 mph - N/A   Overcast
6:56 AM 44.1 °F 40.8 °F 36.0 °F 73% 29.70 in 7.0 mi North 5.8 mph - 0.00 in Rain Light Rain
7:52 AM 42.8 °F 40.1 °F 37.4 °F 81% 29.73 in 2.5 mi NNE 4.6 mph - 0.03 in Rain Light Rain
7:56 AM 42.1 °F 38.4 °F 37.0 °F 82% 29.72 in 2.5 mi NNE 5.8 mph - 0.04 in Rain Light Rain
8:27 AM 42.8 °F 38.0 °F 37.4 °F 81% 29.71 in 3.0 mi NNE 8.1 mph - 0.03 in Rain Light Rain
8:56 AM 43.0 °F 38.2 °F 39.0 °F 86% 29.69 in 4.0 mi NE 8.1 mph - 0.04 in Rain Light Rain
9:53 AM 44.6 °F 38.1 °F 39.2 °F 81% 29.70 in 4.0 mi WNW 13.8 mph 18.4 mph 0.01 in   Scattered Clouds
9:56 AM 44.1 °F 40.1 °F 41.0 °F 89% 29.68 in 4.0 mi WNW 6.9 mph - 0.01 in   Scattered Clouds
10:56 AM 48.0 °F - 43.0 °F 83% 29.71 in 5.0 mi West 6.9 mph - N/A   Haze
11:56 AM 53.1 °F - 45.0 °F 74% 29.74 in 6.0 mi West 8.1 mph - N/A   Haze
12:56 PM 57.9 °F - 46.9 °F 67% 29.74 in 8.0 mi West 4.6 mph - N/A   Clear
1:56 PM 62.1 °F - 46.0 °F 56% 29.74 in 10.0 mi Variable 3.5 mph - N/A   Clear
2:56 PM 64.9 °F - 44.1 °F 47% 29.74 in 10.0 mi Variable 4.6 mph - N/A   Clear
3:56 PM 66.0 °F - 46.9 °F 50% 29.75 in 10.0 mi West 5.8 mph - N/A   Partly Cloudy
4:56 PM 66.0 °F - 45.0 °F 47% 29.76 in 10.0 mi Variable 3.5 mph - N/A   Mostly Cloudy
5:56 PM 66.0 °F - 46.9 °F 50% 29.79 in 10.0 mi West 3.5 mph - N/A   Overcast
6:56 PM 62.1 °F - 46.0 °F 56% 29.82 in 10.0 mi NNE 5.8 mph - N/A   Clear
7:56 PM 55.0 °F - 44.1 °F 67% 29.87 in 10.0 mi NNE 10.4 mph - N/A   Clear
8:56 PM 52.0 °F - 43.0 °F 71% 29.91 in 8.0 mi NE 9.2 mph - N/A   Scattered Clouds
9:03 PM 51.8 °F - 42.8 °F 71% 29.92 in 8.0 mi NE 9.2 mph - N/A   Mostly Cloudy
9:51 PM 50.0 °F - 42.8 °F 76% 29.95 in 7.0 mi ENE 10.4 mph - N/A   Overcast
9:56 PM 50.0 °F - 43.0 °F 77% 29.95 in 7.0 mi ENE 8.1 mph - N/A   Overcast
10:56 PM 48.0 °F - 41.0 °F 77% 29.97 in 7.0 mi NE 6.9 mph - N/A   Overcast
11:56 PM 46.0 °F 41.4 °F 41.0 °F 83% 29.98 in 5.0 mi NE 9.2 mph - N/A   Haze